Akron, CO

9:12 AM MDT on April 23, 2017 (GMT -0600)
Akron-Washington County

Weather History for KAKO - October, 2011

Change the Weather History Date:

Wednesday, October 26, 2011

  Actual Average Record
Temperature  
Mean Temperature 25 °F 47 °F  
Max Temperature 31 °F 60 °F 85 °F (1940)
Min Temperature 18 °F 34 °F 20 °F (1957)
Degree Days  
Heating Degree Days 40    
Month to date heating degree days 307  
Cooling Degree Days 0    
Month to date cooling degree days 17  
Moisture  
Dew Point 26 °F    
Average Humidity 93    
Maximum Humidity 100    
Minimum Humidity 85    
Precipitation  
Precipitation 0.30 in 0.03 in 0.17 in (1941)
Month to date precipitation 1.17 0.99  
Year to date precipitation 15.64  
Sea Level Pressure  
Sea Level Pressure 30.23 in    
Wind  
Wind Speed 13 mph (NNW)    
Max Wind Speed 18 mph    
Max Gust Speed 23 mph    
Visibility 2 miles    
Events Fog , Snow    
T = Trace of Precipitation, MM = Missing Value Source: NWS Daily Summary

Daily Weather History Graph

Daily Weather History Graph

Search for Another Location

Airport or City:

Trip Planner

Search our weather history database for the weather conditions in past years. The results will help you decide how hot, cold, wet, or windy it might be!

Date:

Astronomy

Oct. 26, 2011 Rise Set
Actual Time 7:15 AM MDT 5:57 PM MDT
Civil Twilight 6:47 AM MDT 6:25 PM MDT
Nautical Twilight 6:15 AM MDT 6:57 PM MDT
Astronomical Twilight 5:44 AM MDT 7:28 PM MDT
Moon 7:05 AM MDT (10/26) 5:41 PM MDT (10/26)
Length of Visible Light 11h 38m
Length of Day
10h 42m
Waning Crescent, 0% of the Moon is Illuminated
Oct 26
Waning Crescent
Oct 26
New
Nov 2
First Quarter
Nov 10
Full
Nov 18
Last Quarter

Hourly Weather History & Observations

Time (MDT) Temp. Windchill Dew Point Humidity Pressure Visibility Wind Dir Wind Speed Gust Speed Precip Events Conditions
12:32 AM 30.2 °F 20.2 °F 30.2 °F 100% 30.20 in 1.2 mi North 12.7 mph - 0.03 in Snow Light Snow
12:39 AM 30.2 °F 19.8 °F 30.2 °F 100% 30.19 in 1.0 mi North 13.8 mph - 0.03 in Snow Light Snow
12:46 AM 30.2 °F 19.8 °F 30.2 °F 100% 30.18 in 0.8 mi North 13.8 mph - 0.04 in Snow Light Snow
12:53 AM 30.9 °F 20.2 °F 30.9 °F 100% 30.18 in 0.8 mi North 15.0 mph - 0.04 in Snow Light Snow
1:20 AM 30.2 °F 18.5 °F 30.2 °F 100% 30.16 in 1.0 mi NNE 17.3 mph - 0.01 in Snow Light Snow
1:39 AM 30.2 °F 18.9 °F 30.2 °F 100% 30.18 in 1.2 mi NNE 16.1 mph - 0.02 in Snow Light Snow
1:53 AM 30.9 °F 19.8 °F 30.9 °F 100% 30.18 in 1.2 mi NNE 16.1 mph - 0.03 in Snow Light Snow
2:01 AM 30.2 °F 18.9 °F 30.2 °F 100% 30.18 in 1.5 mi NNE 16.1 mph - 0.00 in Snow Light Snow
2:19 AM 30.2 °F 19.8 °F 30.2 °F 100% 30.18 in 1.2 mi NNE 13.8 mph - 0.01 in Snow Light Snow
2:40 AM 30.2 °F 20.2 °F 30.2 °F 100% 30.18 in 0.8 mi NE 12.7 mph - 0.02 in Snow Light Snow
2:53 AM 30.9 °F 21.7 °F 30.9 °F 100% 30.18 in 0.8 mi NE 11.5 mph - 0.03 in Snow Light Snow
3:43 AM 30.2 °F 20.2 °F 30.2 °F 100% 30.19 in 0.8 mi NNE 12.7 mph - 0.04 in Snow Light Snow
3:53 AM 30.9 °F 20.7 °F 30.0 °F 96% 30.19 in 1.2 mi NNE 13.8 mph - 0.04 in Snow Light Snow
4:10 AM 30.2 °F 20.2 °F 30.2 °F 100% 30.20 in 1.5 mi NNE 12.7 mph - 0.01 in Snow Light Snow
4:25 AM 30.2 °F 20.8 °F 30.2 °F 100% 30.20 in 2.0 mi NNE 11.5 mph - 0.01 in Snow Light Snow
4:53 AM 30.9 °F 21.7 °F 30.0 °F 96% 30.21 in 1.8 mi NNE 11.5 mph - 0.03 in Snow Light Snow
5:03 AM 30.2 °F 18.9 °F 30.2 °F 100% 30.19 in 1.2 mi NNE 16.1 mph - 0.01 in Snow Light Snow
5:12 AM 30.2 °F 18.9 °F 28.4 °F 93% 30.19 in 1.0 mi NNE 16.1 mph - 0.01 in Snow Light Snow
5:17 AM 30.2 °F 19.8 °F 28.4 °F 93% 30.19 in 1.2 mi NNE 13.8 mph - 0.01 in Snow Light Snow
5:33 AM 30.2 °F 20.2 °F 28.4 °F 93% 30.18 in 1.0 mi NE 12.7 mph - 0.02 in Snow Light Snow
6:08 AM 28.4 °F 18.0 °F 28.4 °F 100% 30.20 in 1.0 mi NE 12.7 mph - 0.00 in Snow Light Snow
6:35 AM 28.4 °F 19.7 °F 28.4 °F 100% 30.18 in 1.2 mi NE 9.2 mph - 0.01 in Snow Light Snow
6:37 AM 28.4 °F 19.7 °F 28.4 °F 100% 30.18 in 1.5 mi NE 9.2 mph - 0.01 in Snow Light Snow
7:07 AM 28.4 °F 21.2 °F 28.4 °F 100% 30.20 in 1.8 mi NE 6.9 mph - 0.01 in Snow Light Snow
7:15 AM 28.4 °F 22.2 °F 28.4 °F 100% 30.21 in 1.0 mi NNE 5.8 mph - 0.01 in Snow Light Snow
7:20 AM 28.4 °F 21.2 °F 28.4 °F 100% 30.20 in 0.8 mi NNE 6.9 mph - 0.02 in Snow Light Snow
7:28 AM 28.4 °F 21.2 °F 28.4 °F 100% 30.21 in 0.5 mi North 6.9 mph - 0.03 in Fog , Snow Snow
7:53 AM 28.9 °F 20.4 °F 28.0 °F 96% 30.28 in 0.8 mi North 9.2 mph - 0.05 in Snow Light Snow
9:00 AM 30.2 °F 21.9 °F 28.4 °F 93% 30.24 in 1.0 mi North 9.2 mph - 0.00 in Snow Light Snow
9:16 AM 30.2 °F 21.9 °F 28.4 °F 93% 30.25 in 0.8 mi North 9.2 mph - 0.01 in Snow Light Snow
9:25 AM 30.2 °F 21.9 °F 28.4 °F 93% 30.24 in 0.8 mi North 9.2 mph - 0.01 in Snow Light Snow
9:53 AM 28.9 °F 19.8 °F 28.0 °F 96% 30.33 in 0.5 mi North 10.4 mph - 0.02 in Fog , Snow Snow
10:03 AM 28.4 °F 19.1 °F 28.4 °F 100% 30.24 in 0.8 mi North 10.4 mph - 0.01 in Snow Light Snow
10:18 AM 28.4 °F 18.0 °F 28.4 °F 100% 30.24 in 1.0 mi North 12.7 mph - 0.01 in Snow Light Snow
10:24 AM 28.4 °F 17.5 °F 28.4 °F 100% 30.25 in 1.0 mi North 13.8 mph - 0.01 in Snow Light Snow
10:44 AM 30.2 °F 19.3 °F 28.4 °F 93% 30.25 in 0.8 mi North 15.0 mph - 0.01 in Snow Light Snow
10:53 AM 30.0 °F 19.1 °F 28.0 °F 92% 30.34 in 0.8 mi North 15.0 mph - 0.01 in Snow Light Snow
11:34 AM 30.2 °F 19.8 °F 26.6 °F 86% 30.25 in 1.0 mi NNE 13.8 mph - 0.00 in Snow Light Snow
11:38 AM 30.2 °F 20.2 °F 28.4 °F 93% 30.25 in 1.5 mi North 12.7 mph - 0.00 in Snow Light Snow
11:53 AM 30.0 °F 20.0 °F 28.0 °F 92% 30.33 in 1.2 mi North 12.7 mph - 0.00 in Snow Light Snow
12:00 PM 30.2 °F 19.3 °F 28.4 °F 93% 30.24 in 1.5 mi NNE 15.0 mph - 0.01 in Snow Light Snow
12:16 PM 30.2 °F 18.9 °F 26.6 °F 86% 30.23 in 2.5 mi NNE 16.1 mph - 0.01 in Snow Light Snow
12:43 PM 30.2 °F 19.8 °F 28.4 °F 93% 30.23 in 3.0 mi North 13.8 mph - 0.01 in Snow Light Snow
12:53 PM 30.0 °F 19.5 °F 27.0 °F 88% 30.31 in 3.0 mi North 13.8 mph - 0.01 in Snow Light Snow
1:15 PM 30.2 °F 18.9 °F 28.4 °F 93% 30.22 in 2.0 mi North 16.1 mph - 0.00 in Snow Light Snow
1:28 PM 30.2 °F 19.3 °F 26.6 °F 86% 30.21 in 3.0 mi NNE 15.0 mph - 0.00 in   Overcast
1:37 PM 30.2 °F 20.2 °F 28.4 °F 93% 30.21 in 1.8 mi NNE 12.7 mph - 0.00 in Snow Light Snow
1:53 PM 30.0 °F 19.1 °F 27.0 °F 88% 30.29 in 1.8 mi North 15.0 mph - 0.00 in Snow Light Snow
2:24 PM 30.2 °F 19.3 °F 26.6 °F 86% 30.20 in 2.0 mi NNE 15.0 mph - 0.00 in Snow Light Snow
2:35 PM 30.2 °F 19.8 °F 26.6 °F 86% 30.20 in 4.0 mi NNE 13.8 mph - 0.00 in Snow Light Snow
2:50 PM 30.2 °F 21.3 °F 26.6 °F 86% 30.20 in 3.0 mi NNE 10.4 mph - 0.00 in Snow Light Snow
2:53 PM 30.0 °F 21.1 °F 27.0 °F 88% 30.28 in 3.0 mi NNE 10.4 mph - 0.00 in Snow Light Snow
3:07 PM 30.2 °F 21.3 °F 26.6 °F 86% 30.20 in 4.0 mi North 10.4 mph - 0.00 in Snow Light Snow
3:53 PM 28.9 °F 21.9 °F 27.0 °F 92% 30.29 in 6.0 mi NNW 6.9 mph - 0.00 in   Overcast
4:53 PM 27.0 °F 19.5 °F 26.1 °F 96% 30.30 in 6.0 mi NW 6.9 mph - 0.00 in   Mostly Cloudy
5:26 PM 26.6 °F 17.5 °F 24.8 °F 93% 30.21 in 6.0 mi WNW 9.2 mph - N/A   Scattered Clouds
5:36 PM 26.6 °F 16.8 °F 26.6 °F 100% 30.20 in 4.0 mi WNW 10.4 mph - N/A   Mostly Cloudy
5:44 PM 26.6 °F 17.5 °F 26.6 °F 100% 30.19 in 4.0 mi WNW 9.2 mph - N/A   Mostly Cloudy
5:53 PM 27.0 °F 17.3 °F 26.1 °F 96% 30.29 in 3.0 mi WNW 10.4 mph - N/A   Mostly Cloudy
5:57 PM 26.6 °F 16.8 °F 26.6 °F 100% 30.19 in 2.0 mi WNW 10.4 mph - N/A   Scattered Clouds
6:09 PM 26.6 °F 16.2 °F 24.8 °F 93% 30.19 in 1.5 mi WNW 11.5 mph - N/A   Scattered Clouds
6:19 PM 24.8 °F 14.0 °F 24.8 °F 100% 30.20 in 2.0 mi WNW 11.5 mph - N/A   Scattered Clouds
6:23 PM 26.6 °F 16.2 °F 24.8 °F 93% 30.19 in 1.2 mi WNW 11.5 mph - N/A   Scattered Clouds
6:31 PM 24.8 °F 13.4 °F 24.8 °F 100% 30.20 in 1.0 mi WNW 12.7 mph - N/A   Mist
6:35 PM 24.8 °F 13.4 °F 24.8 °F 100% 30.20 in 1.5 mi WNW 12.7 mph - N/A   Scattered Clouds
6:40 PM 24.8 °F 13.4 °F 24.8 °F 100% 30.20 in 3.0 mi WNW 12.7 mph - N/A   Scattered Clouds
6:53 PM 23.0 °F 13.9 °F 23.0 °F 100% 30.32 in 7.0 mi WNW 8.1 mph - N/A   Partly Cloudy
7:29 PM 21.2 °F 10.1 °F 21.2 °F 100% 30.21 in 1.8 mi WNW 10.4 mph - N/A   Scattered Clouds
7:32 PM 21.2 °F 10.1 °F 21.2 °F 100% 30.21 in 1.0 mi WNW 10.4 mph - N/A   Mist
7:39 PM 21.2 °F 9.5 °F 21.2 °F 100% 30.21 in 0.2 mi WNW 11.5 mph - N/A Fog Light Freezing Fog
7:53 PM 21.9 °F 10.4 °F 21.0 °F 96% 30.33 in 0.2 mi West 11.5 mph - N/A Fog Light Freezing Fog
8:50 PM 19.4 °F 6.6 °F 19.4 °F 100% 30.21 in 1.0 mi West 12.7 mph - N/A   Mist
8:53 PM 19.0 °F 6.1 °F 18.0 °F 96% 30.35 in 1.0 mi West 12.7 mph - N/A   Mist
9:00 PM 17.6 °F 5.0 °F 17.6 °F 100% 30.21 in 1.5 mi West 11.5 mph - N/A   Mostly Cloudy
9:10 PM 19.4 °F 7.2 °F 17.6 °F 93% 30.21 in 2.5 mi West 11.5 mph - N/A   Scattered Clouds
9:26 PM 19.4 °F 6.0 °F 17.6 °F 93% 30.21 in 1.0 mi West 13.8 mph - N/A   Mist
9:33 PM 19.4 °F 7.2 °F 19.4 °F 100% 30.22 in 0.2 mi West 11.5 mph - N/A Fog Light Freezing Fog
9:53 PM 19.9 °F 7.9 °F 19.0 °F 96% 30.35 in 0.2 mi West 11.5 mph - N/A Fog Light Freezing Fog
10:18 PM 17.6 °F 5.7 °F 17.6 °F 100% 30.22 in 1.2 mi West 10.4 mph - N/A   Mostly Cloudy
10:21 PM 17.6 °F 5.7 °F 17.6 °F 100% 30.22 in 2.0 mi WSW 10.4 mph - N/A   Mostly Cloudy
10:27 PM 19.4 °F 8.6 °F 17.6 °F 93% 30.22 in 6.0 mi West 9.2 mph - N/A   Scattered Clouds
10:53 PM 18.0 °F 6.9 °F 17.1 °F 96% 30.35 in 10.0 mi West 9.2 mph - N/A   Clear
11:16 PM 19.4 °F 7.2 °F 17.6 °F 93% 30.21 in 2.5 mi West 11.5 mph - N/A   Scattered Clouds
11:18 PM 19.4 °F 7.2 °F 17.6 °F 93% 30.21 in 1.2 mi West 11.5 mph - N/A   Scattered Clouds
11:20 PM 19.4 °F 7.2 °F 17.6 °F 93% 30.21 in 0.8 mi West 11.5 mph - N/A   Mist
11:53 PM 18.0 °F 5.4 °F 17.1 °F 96% 30.33 in 0.5 mi SW 11.5 mph - N/A Fog Light Freezing Fog